Location: Newark
(47.2667°N, 0.8333°E)
Time: 21:28:05
(UTC+00:00)

N. Korean satellite - Visible Passes

Search period start: 26 January 2020 00:00
Search period end: 05 February 2020 00:00
Orbit: 454 x 507 km, 97.2° (Epoch: 26 January)

Date Brightness Start Highest point End Pass type
(mag) Time Alt. Az. Time Alt. Az. Time Alt. Az.
26 Jan 8.4 05:18:56 10° NNE 05:22:12 33° E 05:25:30 10° SSE visible
26 Jan 7.9 06:52:47 10° NNW 06:55:24 19° WNW 06:58:02 10° WSW visible
26 Jan 8.9 17:30:50 10° SSW 17:33:49 28° W 17:36:51 10° NW visible
27 Jan 9.5 04:54:05 10° NE 04:56:33 17° E 04:59:01 10° SE visible
27 Jan 7.1 06:26:45 10° N 06:30:04 36° WNW 06:33:24 10° SW visible
28 Jan 6.4 06:01:03 10° N 06:04:38 73° WNW 06:08:15 10° SSW visible
29 Jan 7.4 05:35:35 10° NNE 05:39:08 53° E 05:42:41 10° S visible
29 Jan 9.7 17:48:21 10° SW 17:50:47 18° W 17:53:15 10° NW visible
30 Jan 8.8 05:10:25 10° NE 05:13:32 27° E 05:16:39 10° SSE visible
30 Jan 7.7 06:43:54 10° NNW 06:46:50 24° WNW 06:49:47 10° WSW visible
30 Jan 8.4 17:21:56 10° SSW 17:25:07 35° W 17:28:21 10° NNW visible
31 Jan 9.8 04:45:48 10° ENE 04:47:51 14° E 04:49:53 10° SE visible
31 Jan 6.8 06:17:59 10° N 06:21:27 45° WNW 06:24:57 10° SW visible
01 Feb 6.6 05:52:22 10° NNE 05:56:00 88° ESE 05:59:40 10° SSW visible
01 Feb 10.1 18:06:28 10° WSW 18:07:46 12° W 18:09:06 10° WNW visible
02 Feb 7.9 05:26:58 10° NNE 05:30:27 42° E 05:33:58 10° S visible
02 Feb 9.4 17:39:15 10° SSW 17:42:02 23° W 17:44:51 10° NW visible
03 Feb 9.2 05:01:55 10° NE 05:04:49 22° E 05:07:45 10° SSE visible
03 Feb 7.4 06:35:01 10° N 06:38:14 29° WNW 06:41:26 10° SW visible
04 Feb 10.1 04:37:44 10° ENE 04:39:06 12° E 04:40:29 10° ESE visible
04 Feb 6.6 06:09:13 10° N 06:12:49 57° WNW 06:16:27 10° SSW visible
